TimePDT,TemperatureF,Dew PointF,Humidity,Sea Level PressureIn,VisibilityMPH,Wind Direction,Wind SpeedMPH,Gust SpeedMPH,PrecipitationIn,Events,Conditions,WindDirDegrees,DateUTC
12:53 AM,57.9,48.9,72,29.92,10.0,NNW,3.5,-,N/A,,Partly Cloudy,330,2012-10-10 07:53:00
1:53 AM,55.0,46.9,74,29.93,10.0,WSW,3.5,-,N/A,,Clear,250,2012-10-10 08:53:00
2:53 AM,57.9,50.0,75,29.91,10.0,NW,4.6,-,N/A,,Clear,310,2012-10-10 09:53:00
3:53 AM,57.0,50.0,77,29.90,10.0,NW,4.6,-,N/A,,Clear,310,2012-10-10 10:53:00
4:53 AM,53.1,46.9,80,29.91,10.0,WSW,5.8,-,N/A,,Clear,250,2012-10-10 11:53:00
5:53 AM,55.0,48.9,80,29.91,9.0,Calm,Calm,-,N/A,,Clear,0,2012-10-10 12:53:00
6:53 AM,53.1,48.0,83,29.92,7.0,Calm,Calm,-,N/A,,Clear,0,2012-10-10 13:53:00
7:53 AM,55.0,48.9,80,29.93,6.0,Calm,Calm,-,N/A,,Haze,0,2012-10-10 14:53:00
8:53 AM,61.0,50.0,67,29.94,10.0,NNE,3.5,-,N/A,,Partly Cloudy,20,2012-10-10 15:53:00
9:53 AM,63.0,48.9,60,29.94,10.0,WNW,4.6,-,N/A,,Scattered Clouds,300,2012-10-10 16:53:00
10:53 AM,68.0,48.0,49,29.93,10.0,Calm,Calm,-,N/A,,Clear,0,2012-10-10 17:53:00
11:53 AM,71.1,46.9,42,29.91,10.0,Variable,3.5,-,N/A,,Clear,0,2012-10-10 18:53:00
12:53 PM,73.9,48.0,40,29.89,10.0,WNW,5.8,-,N/A,,Clear,300,2012-10-10 19:53:00
1:53 PM,77.0,48.0,36,29.87,10.0,WSW,5.8,-,N/A,,Clear,250,2012-10-10 20:53:00
2:53 PM,77.0,46.9,34,29.86,8.0,SSW,3.5,-,N/A,,Clear,200,2012-10-10 21:53:00
3:53 PM,78.1,46.9,33,29.85,10.0,South,3.5,-,N/A,,Clear,170,2012-10-10 22:53:00
4:53 PM,77.0,46.9,34,29.84,10.0,South,3.5,-,N/A,,Clear,170,2012-10-10 23:53:00
5:53 PM,75.9,46.9,36,29.84,10.0,Calm,Calm,-,N/A,,Clear,0,2012-10-11 00:53:00
6:53 PM,69.1,51.1,53,29.86,10.0,WSW,8.1,16.1,N/A,,Clear,250,2012-10-11 01:53:00
7:53 PM,66.0,51.1,59,29.87,10.0,West,9.2,-,N/A,,Clear,260,2012-10-11 02:53:00
8:53 PM,63.0,51.1,65,29.87,10.0,WSW,4.6,-,N/A,,Clear,250,2012-10-11 03:53:00
9:53 PM,63.0,51.1,65,29.88,10.0,Calm,Calm,-,N/A,,Partly Cloudy,0,2012-10-11 04:53:00
10:53 PM,61.0,51.1,70,29.88,10.0,Calm,Calm,-,N/A,,Clear,0,2012-10-11 05:53:00
11:53 PM,61.0,51.1,70,29.89,10.0,Calm,Calm,-,N/A,,Clear,0,2012-10-11 06:53:00